Location: East Arcadia
(34.1056°N, 118.0176°W)
Time: 10:13:19
(UTC+00:00)

DELTA 2 R/B (1) - Pass Details

Date: 06 December 2023
Orbit: 788 x 802 km, 39.6° (Epoch: 21 February)

Event Time Altitude Azimuth Distance (km) Brightness Sun altitude
Rises 03:29:18 0° 246° (WSW) 3,287 7.7 -33.8°
Reaches altitude 10° 03:31:47 10° 246° (WSW) 2,356 6.8 -34.4°
Enters shadow 03:34:57 35° 247° (WSW) 1,251 4.9 -35.0°
